World > North America > United States > Ohio   City of Cleveland, OH

Cleveland, Ohio Regional Weather

Lat: 41.48N, Lon: 81.68W
Wx Zone: OHZ011Web Search

Helpful Tip: Abbreviated, 7 Day, 14 Day Forecasts. There is a weather forecast for every taste.

Feedback
Cleveland Weather Map
UTC Time: 12/5/2020, 15:32
Your Time:

Cleveland, OH Regional Weather

Expires:202012051600;;876992
ASUS41 KCLE 051502
RWRCLE
OHIO REGIONAL WEATHER ROUNDUP
NATIONAL WEATHER SERVICE CLEVELAND, OH
1000 AM EST SAT DEC 05 2020

NOTE: "FAIR" INDICATES FEW OR NO CLOUDS BELOW 12,000 FEET WITH NO
SIGNIFICANT WEATHER AND/OR OBSTRUCTIONS TO VISIBILITY.


OHZ009>014-019>023-028>033-038-089-051600-
   NORTHEAST OHIO
  
CITY           SKY/WX    TMP DP  RH WIND       PRES   REMARKS
CLE-HOPKINS    PTSUNNY   37  29  72 NW15      30.03R                  
CLE-LAKEFRONT  CLOUDY    40  32  73 NW20      30.04R                  
CUY CO. ARPT   CLOUDY    37  32  81 NW8G21    30.04R                  
LORAIN-ELYRIA    N/A    N/A N/A N/A MISG      30.07R                  
ASHTABULA      CLOUDY    38  31  76 N7        30.01R                  
AKRON-CANTON   PTSUNNY   38  30  73 NW8       30.03R                  
WOOSTER        PTSUNNY   36  28  73 N8        30.05R                  
MANSFIELD      MOSUNNY   36  30  79 N9        30.05R                  
YOUNGSTOWN     PTSUNNY   36  30  79 NW8       30.00R                  
$$


SKY/WX - Weather  TMP - Temperature  DP - Dew Point  RH - Relative Humidity
WIND - Wind Direction/Speed PRES - Barometric Pressure VSB - Visibility
WCI - Wind Chill Index E13G22 Wind - East Wind 13 mph/Gusts of 22 mph